EW7398 Weather Reports


Display with metric or nautical units.
time (UTC)temp
F
wind
direction
speed
MPH
gust
MPH
rain 1hr
in
rain 24hr
in
rain mn
in
humidity
%
barometer
mb
20260903034556 73 128 2.0 5.0 0.00 0.00 0.00 40 1008.7
20260903033044 74 138 4.0 9.0 0.00 0.00 0.00 37 1008.5
20260903031523 74 142 4.0 8.0 0.00 0.00 0.00 37 1008.3
20260903030111 75 138 3.0 5.0 0.00 0.00 0.00 36 1008.1
20260903024544 76 155 4.0 7.0 0.00 0.00 0.00 34 1007.9
20260903023023 76 153 4.0 11.0 0.00 0.00 0.00 33 1007.6
20260903021532 77 142 6.0 12.0 0.00 0.00 0.00 33 1007.6
20260903020105 78 142 6.0 11.0 0.00 0.00 0.00 32 1007.5
20260903014526 79 202 5.0 11.0 0.00 0.00 0.00 31 1007.6
20260903013010 79 228 5.0 12.0 0.00 0.00 0.00 31 1007.5
20260903011559 80 259 9.0 17.0 0.00 0.00 0.00 30 1007.5
20260903010046 81 189 7.0 14.0 0.00 0.00 0.00 30 1007.5
20260903004514 81 189 9.0 21.0 0.00 0.00 0.00 30 1007.5
20260903003054 82 198 10.0 21.0 0.00 0.00 0.00 29 1007.5
20260903001542 82 248 8.0 26.0 0.00 0.00 0.00 29 1007.6
20260903000001 83 207 11.0 17.0 0.00 0.00 0.00 30 1007.5
20260902234548 83 205 7.0 17.0 0.00 0.00 0.00 30 1007.6
20260902233058 84 193 11.0 18.0 0.00 0.00 0.00 30 1007.5
20260902231525 84 206 9.0 20.0 0.00 0.00 0.00 31 1007.6
20260902230107 85 213 11.0 20.0 0.00 0.00 0.00 30 1007.7
20260902224525 86 208 9.0 21.0 0.00 0.00 0.00 31 1007.7
20260902223003 86 224 8.0 19.0 0.00 0.00 0.00 31 1007.9
20260902221543 86 271 8.0 23.0 0.00 0.00 0.00 32 1008.1
20260902220119 86 204 11.0 21.0 0.00 0.00 0.00 30 1008.0
20260902214549 86 200 14.0 26.0 0.00 0.00 0.00 30 1008.2
20260902213027 86 186 13.0 26.0 0.00 0.00 0.00 32 1008.1
20260902211514 86 181 8.0 19.0 0.00 0.00 0.00 33 1008.5
20260902210050 86 201 12.0 19.0 0.00 0.00 0.00 33 1008.6
20260902204503 87 202 10.0 17.0 0.00 0.00 0.00 32 1008.7
20260902203050 86 197 7.0 20.0 0.00 0.00 0.00 35 1008.7
20260902201531 86 207 8.0 23.0 0.00 0.00 0.00 35 1009.1
20260902200104 85 155 10.0 20.0 0.00 0.00 0.00 36 1009.1
20260902194530 85 200 10.0 15.0 0.00 0.00 0.00 36 1009.3
20260902193005 84 202 9.0 25.0 0.00 0.00 0.00 37 1009.5
20260902191543 82 191 9.0 25.0 0.00 0.00 0.00 40 1009.6
20260902190117 80 169 10.0 18.0 0.00 0.00 0.00 41 1009.8
20260902184542 79 215 6.0 21.0 0.00 0.00 0.00 42 1010.0
20260902183049 80 224 10.0 19.0 0.00 0.00 0.00 41 1010.2
20260902181509 80 178 10.0 20.0 0.00 0.00 0.00 42 1010.4
20260902180047 78 136 11.0 16.0 0.00 0.00 0.00 43 1010.5
20260902174559 76 198 3.0 15.0 0.00 0.00 0.00 51 1010.6
20260902173048 76 360 5.0 14.0 0.00 0.00 0.00 55 1010.7
20260902171518 75 360 8.0 13.0 0.00 0.00 0.00 55 1010.6
20260902170058 75 360 8.0 17.0 0.00 0.00 0.00 55 1010.6
20260902164522 74 155 8.0 14.0 0.00 0.00 0.00 56 1010.4
20260902163053 74 144 8.0 13.0 0.00 0.00 0.00 56 1010.4
20260902161530 73 145 7.0 13.0 0.00 0.00 0.00 56 1010.3
20260902160114 74 153 7.0 15.0 0.00 0.00 0.00 55 1010.3
20260902154538 74 13 7.0 16.0 0.00 0.00 0.00 58 1010.2
20260902153015 73 173 8.0 18.0 0.00 0.00 0.00 63 1010.2
20260902151552 72 27 10.0 17.0 0.00 0.00 0.00 69 1010.1
20260902150034 70 360 8.0 14.0 0.00 0.00 0.00 73 1010.3
20260902144546 68 146 8.0 13.0 0.00 0.00 0.00 78 1010.3
20260902143028 67 360 4.0 6.0 0.00 0.00 0.00 85 1010.5
20260902141601 65 360 3.0 5.0 0.00 0.00 0.00 86 1010.3
20260902141502 65 360 2.0 5.0 0.00 0.00 0.00 87 1010.3
20260902140039 64 190 2.0 4.0 0.00 0.00 0.00 87 1010.3
20260902134554 63 202 1.0 3.0 0.00 0.00 0.00 86 1010.2
20260902133034 63 188 0.0 3.0 0.00 0.00 0.00 85 1010.1
20260902131512 63 188 2.0 4.0 0.00 0.00 0.00 85 1009.9
20260902130055 63 185 2.0 6.0 0.00 0.00 0.00 85 1009.8
20260902124506 63 165 3.0 5.0 0.00 0.00 0.00 84 1009.9
20260902123053 63 165 3.0 5.0 0.00 0.00 0.00 84 1009.6
20260902121534 64 165 4.0 6.0 0.00 0.00 0.00 84 1009.5
20260902120105 64 145 3.0 8.0 0.00 0.00 0.00 84 1009.4
20260902114522 64 132 5.0 7.0 0.00 0.00 0.00 84 1009.5
20260902113006 64 157 4.0 7.0 0.00 0.00 0.00 83 1009.5
20260902111553 65 171 4.0 5.0 0.00 0.00 0.00 83 1009.5
20260902110033 65 171 4.0 6.0 0.00 0.00 0.00 82 1009.5
20260902104613 65 184 3.0 5.0 0.00 0.00 0.00 82 1009.5
20260902103052 65 173 4.0 7.0 0.00 0.00 0.00 81 1009.6
20260902101513 65 166 4.0 6.0 0.00 0.00 0.00 81 1009.7
20260902100056 66 166 3.0 5.0 0.00 0.00 0.00 81 1010.0
20260902094524 66 166 3.0 9.0 0.00 0.00 0.00 80 1010.0
20260902093009 66 163 4.0 7.0 0.00 0.00 0.00 80 1009.9
20260902091555 66 182 4.0 6.0 0.00 0.00 0.00 79 1010.2
20260902090042 66 173 5.0 9.0 0.00 0.00 0.00 79 1010.2
20260902084504 66 148 10.0 18.0 0.00 0.00 0.00 76 1010.4
20260902083038 66 175 5.0 7.0 0.00 0.00 0.00 75 1010.2
20260902081528 66 161 4.0 8.0 0.00 0.00 0.00 73 1010.4
20260902080112 66 157 5.0 8.0 0.00 0.00 0.00 73 1010.2
20260902074538 67 160 4.0 7.0 0.00 0.00 0.00 73 1010.2
20260902073020 67 163 4.0 8.0 0.00 0.00 0.00 72 1010.2
20260902071506 67 167 5.0 7.0 0.00 0.00 0.00 73 1010.2
20260902070024 67 167 4.0 7.0 0.00 0.00 0.00 72 1010.3
20260902064605 67 168 4.0 7.0 0.00 0.00 0.00 71 1010.3
20260902063104 66 144 5.0 9.0 0.00 0.00 0.00 72 1010.3
20260902061557 66 169 3.0 6.0 0.00 0.00 0.00 72 1010.4
20260902060042 66 169 3.0 5.0 0.00 0.00 0.00 71 1010.5
20260902054556 67 169 3.0 5.0 0.00 0.00 0.00 70 1010.5
20260902053041 67 150 3.0 6.0 0.00 0.00 0.00 69 1010.6
20260902051522 68 136 3.0 5.0 0.00 0.00 0.00 67 1010.7
20260902050059 69 136 2.0 4.0 0.00 0.00 0.00 65 1010.7
20260902044551 70 136 2.0 4.0 0.00 0.00 0.00 61 1010.8
20260902043008 71 143 3.0 4.0 0.00 0.00 0.00 60 1010.7
20260902041553 72 53 1.0 4.0 0.00 0.00 0.00 58 1010.6
20260902040010 73 194 1.0 3.0 0.00 0.00 0.00 56 1010.6